RH
60 58 54 60 81 95 93 92 96 99 99 100 100 100 100 99 95 92 91 92 94 96 99 100 100 100 100 99 100 100 100 100 100 100 99 100 99 92 85 79 75 77 73 57 46 44 42 40 40 40 41 45 48 49 50 53 53 46 39 36 33 33 31
61 57 56 66 83 93 95 94 95 97 99 100 100 99 101 99 96 95 94 95 98 99 100 100 100 101 98 97 99 100 100 100 100 100 100 99 101 98 92 85 80 78 78 67 51 43 43 41 40 41 42 43 45 46 49 52 55 55 50 44 38 34 34
69 68 69 78 90 95 94 89 85 87 93 98 101 100 99 99 98 98 98 98 98 97 99 100 99 100 99 98 100 100 100 100 100 100 100 100 100 100 97 92 86 82 81 77 61 48 44 42 41 42 42 43 45 46 49 52 55 60 59 53 46 39 35
78 79 81 87 91 88 82 77 74 75 77 85 97 102 100 99 99 98 98 96 95 94 97 100 100 100 100 99 100 100 100 100 100 100 100 100 100 100 99 96 94 88 84 84 75 58 50 47 45 45 44 45 49 51 52 54 56 60 62 58 53 47 40
80 84 86 87 83 76 69 66 69 74 71 70 83 94 99 101 99 97 96 93 93 93 94 97 98 98 100 100 100 100 100 100 100 100 100 100 100 100 100 99 98 95 89 89 85 69 56 53 50 50 49 48 52 57 58 59 60 60 61 60 59 57 51
81 84 85 85 82 75 69 63 65 73 71 65 71 80 87 96 100 98 96 93 90 89 90 92 93 94 98 100 100 100 100 98 99 100 100 100 100 100 100 99 99 99 95 94 91 77 62 57 54 54 55 54 55 61 65 67 69 68 66 64 63 63 61
81 84 84 86 85 80 73 67 64 68 69 65 67 70 72 79 86 88 87 84 80 79 83 87 89 92 96 99 100 100 96 92 94 98 99 100 100 100 100 100 100 100 99 98 96 84 68 61 59 59 61 62 63 66 70 73 77 80 78 73 70 69 66
82 84 84 86 88 85 82 79 72 69 73 69 64 64 65 66 69 71 71 67 64 66 74 82 88 92 94 96 98 98 93 84 82 89 96 100 100 99 100 100 99 100 100 100 99 90 74 64 62 63 67 71 74 78 79 78 79 84 85 82 80 77 71
84 86 87 87 88 88 89 91 86 80 82 82 72 67 68 68 69 71 70 65 62 64 69 78 86 91 91 90 91 94 92 82 74 77 86 96 100 100 100 100 99 99 98 98 99 93 80 69 64 65 71 78 81 82 82 81 80 81 83 83 83 82 78
89 90 90 91 92 93 93 95 93 87 87 92 90 86 86 86 84 81 79 75 73 74 75 78 85 90 88 85 86 91 92 84 76 73 74 83 95 99 100 100 100 100 97 95 97 93 84 76 70 65 69 77 79 79 79 80 81 82 83 85 86 86 84
93 93 94 96 97 99 99 98 96 94 93 97 99 98 99 99 97 94 91 87 84 82 81 83 86 88 87 86 87 89 91 88 82 76 74 80 91 96 97 99 99 99 98 95 94 91 85 82 77 68 65 71 75 77 78 79 80 81 83 87 89 87 87
97 97 98 101 100 100 100 100 99 99 99 100 100 100 100 100 99 99 98 96 92 89 87 88 91 89 87 89 88 85 87 90 88 84 81 83 90 94 96 98 97 96 96 95 95 92 86 83 81 73 66 66 69 73 76 77 79 80 81 84 85 83 83
100 100 100 101 101 99 99 98 99 100 100 100 100 100 100 99 98 100 100 99 97 95 93 93 94 94 91 90 90 86 85 88 90 91 89 86 86 88 92 97 98 96 93 92 92 93 89 83 80 78 71 66 65 68 72 76 79 81 81 82 82 80 79
100 100 99 99 100 100 99 97 98 100 100 100 100 100 99 99 99 100 100 100 99 98 97 97 96 97 95 92 92 91 87 85 89 96 96 89 83 81 83 90 97 98 97 94 91 91 91 85 80 78 75 70 68 68 70 74 78 79 81 82 81 79 78
99 99 98 99 100 100 100 99 98 100 100 100 100 100 100 100 100 100 100 100 100 100 99 99 97 96 95 93 92 91 89 87 90 97 98 92 87 82 79 82 89 93 95 95 92 89 89 89 85 80 78 75 73 72 71 72 74 75 79 83 84 84 84
100 101 100 101 101 100 100 99 99 100 100 99 100 100 100 100 99 100 100 99 100 100 99 100 99 97 96 95 92 89 90 90 93 97 97 93 91 88 83 81 83 88 92 93 91 88 86 86 85 82 81 79 76 75 73 73 77 78 81 85 88 89 89
100 100 100 101 100 100 101 99 97 100 100 99 100 99 100 100 99 99 100 100 100 100 100 100 100 99 98 96 92 89 90 91 95 98 96 91 89 88 88 86 83 87 94 93 89 86 84 83 82 82 81 79 78 76 72 73 79 81 81 83 86 89 91
101 100 100 100 100 100 100 94 90 96 101 99 98 98 99 100 100 100 99 99 100 100 99 100 100 99 99 98 95 93 92 90 92 98 98 92 88 89 92 90 86 89 96 96 92 89 85 83 83 82 81 79 77 74 70 70 74 76 77 79 80 84 88
101 100 96 95 98 100 96 87 83 92 100 99 96 96 96 96 98 100 100 99 99 99 98 98 98 99 100 99 98 98 96 91 91 97 99 93 90 94 94 90 86 89 93 95 95 95 94 92 89 87 86 83 79 75 70 67 67 68 71 74 76 79 86
100 99 94 90 92 98 94 83 80 89 98 101 98 93 90 90 92 95 97 99 99 99 99 98 97 96 97 99 100 98 94 89 90 96 100 96 93 94 92 87 87 89 87 86 87 92 98 99 95 91 90 87 83 79 72 66 65 65 65 68 73 77 79
96 97 95 90 89 93 93 86 83 86 91 95 98 96 90 89 90 91 92 95 96 97 99 100 99 98 96 96 98 96 91 89 90 95 99 100 96 92 90 89 91 93 91 90 91 94 99 100 98 96 93 89 87 82 73 67 65 64 63 64 69 74 75
96 95 94 92 87 86 88 88 87 89 87 84 88 95 95 91 90 92 93 96 97 98 98 97 98 99 99 99 99 97 92 90 91 92 96 99 97 94 93 92 93 94 96 97 98 99 100 100 99 99 96 92 91 87 77 69 67 66 66 66 66 68 70
96 95 94 92 88 84 87 89 89 93 92 80 75 85 94 95 93 94 96 98 100 100 98 95 92 93 95 96 96 95 93 93 93 92 92 94 94 92 92 94 95 97 99 100 100 100 100 100 100 100 99 96 96 92 83 74 72 71 70 70 72 71 69
96 96 96 95 91 88 90 92 93 96 94 85 78 83 91 94 94 95 98 98 99 100 100 98 96 94 94 95 94 93 94 96 97 96 94 94 95 94 93 95 98 99 100 100 100 100 100 100 99 100 100 99 98 96 89 82 80 79 77 77 78 78 77
97 97 97 95 94 94 94 95 97 95 91 90 90 88 87 89 91 95 99 99 98 100 100 99 100 98 98 99 98 98 97 97 98 99 97 97 97 98 98 98 99 100 100 100 100 100 100 100 100 100 100 99 99 98 93 89 88 88 86 84 83 83 83
98 97 97 95 96 97 97 97 97 92 87 90 94 92 91 94 96 97 99 99 98 100 99 99 99 99 98 100 100 100 100 99 99 99 99 97 98 99 100 100 100 100 100 100 100 100 100 100 100 100 100 100 100 99 96 93 92 93 93 90 87 87 86
98 97 98 99 98 99 99 97 95 92 88 88 93 96 98 100 100 97 96 96 98 100 100 99 100 100 100 100 100 100 100 100 100 100 99 99 100 100 100 100 100 100 100 100 100 100 100 100 100 100 100 100 100 100 98 95 93 94 95 93 89 87 86
100 99 99 100 100 99 100 97 94 93 92 89 93 99 101 99 98 96 95 96 99 100 100 100 100 100 99 99 100 100 100 100 100 100 100 100 100 100 100 100 100 100 100 100 99 100 100 100 100 100 100 100 100 101 101 99 95 94 95 92 87 85 84
99 100 100 100 100 100 100 98 96 97 98 96 97 100 99 97 96 95 96 99 100 100 100 100 100 99 98 99 100 100 100 100 100 100 100 100 100 100 100 100 98 98 99 98 97 99 100 100 100 100 100 100 100 101 101 100 97 94 91 83 75 72 70
99 100 100 100 100 99 100 100 99 98 99 99 99 98 95 95 96 96 98 100 100 99 99 99 99 99 99 99 100 100 100 100 100 100 100 100 100 100 100 99 98 98 99 98 98 99 100 100 100 100 100 100 100 101 100 97 93 89 81 68 60 63 64
99 100 100 100 100 99 98 98 99 99 99 100 100 99 97 98 99 99 100 100 97 96 97 97 99 101 100 100 100 100 100 100 100 100 100 100 101 100 99 99 99 99 99 100 100 100 100 100 100 100 100 100 99 96 91 85 78 72 66 57 54 60 66
100 100 100 99 100 100 98 97 98 100 100 100 100 99 99 100 99 100 100 96 92 93 97 97 98 99 100 100 100 100 100 100 100 100 100 100 101 101 100 99 100 99 98 99 100 100 100 100 100 100 99 97 94 86 75 66 61 59 57 57 59 62 65
99 101 100 99 100 100 98 95 95 97 99 100 100 99 99 100 100 101 99 93 89 92 97 97 97 99 100 100 100 100 100 100 100 100 100 100 100 100 101 102 101 99 98 99 99 100 100 100 100 99 96 91 86 77 65 58 58 60 59 62 65 67 67
94 97 98 99 99 99 98 95 94 97 100 100 99 98 98 98 98 97 95 90 89 93 97 97 98 101 101 100 100 100 100 100 100 100 100 100 100 100 101 102 102 101 100 100 101 100 100 99 98 96 91 84 78 71 64 60 61 63 62 63 65 66 67
96 96 98 99 98 99 100 99 98 99 100 99 99 96 92 90 92 93 93 93 92 94 96 97 98 100 101 100 101 100 100 100 100 100 100 100 100 101 102 102 102 101 101 100 100 99 98 96 94 91 86 79 72 67 65 63 63 62 61 60 60 61 64
99 98 97 95 94 96 99 100 100 101 100 100 99 93 86 84 89 93 95 96 95 95 96 97 98 99 99 99 99 99 99 99 99 99 99 98 98 99 101 101 101 101 101 101 99 98 96 93 90 86 82 76 69 63 61 61 61 60 58 57 56 58 60
Wind_Speed
25 28 28 27 25 25 26 25 22 23 26 26 25 25 25 25 25 25 25 25 24 23 22 22 22 23 24 22 22 23 24 24 24 25 26 27 28 28 29 28 21 12 9 10 15 19 22 26 27 27 29 31 32 32 33 34 35 36 36 37 37 36 35
26 28 28 26 25 24 23 21 19 18 21 24 24 23 23 24 25 25 24 23 23 22 21 21 21 22 23 22 21 22 22 23 24 24 25 26 26 27 29 29 25 18 12 9 13 17 18 21 26 27 28 29 29 30 31 32 34 34 34 35 35 35 34
26 26 25 23 21 19 18 19 20 19 17 18 20 21 21 22 23 24 24 23 23 22 21 20 21 22 22 22 21 22 22 22 23 24 25 26 27 27 28 30 29 24 17 12 12 17 20 21 24 26 27 27 28 28 28 30 32 33 33 33 32 33 34
22 21 19 18 18 20 22 24 25 22 20 18 15 17 19 21 22 23 23 23 23 22 22 21 21 22 22 22 22 22 22 22 23 24 24 25 27 27 27 29 30 28 24 17 13 17 22 24 25 25 25 25 25 26 26 28 29 30 31 31 31 32 34
19 17 17 18 21 25 27 28 26 24 23 21 16 14 15 18 20 21 21 21 21 21 21 22 22 22 22 22 23 22 21 21 22 23 24 25 25 27 27 27 28 30 28 22 15 16 20 22 23 22 22 24 25 24 23 23 25 27 28 29 30 31 32
19 19 20 22 24 26 27 28 27 25 25 24 20 16 14 15 16 17 18 18 18 19 21 22 23 23 22 23 24 24 22 21 21 22 22 24 25 26 27 25 25 27 27 24 19 18 19 20 22 22 21 23 26 25 25 24 23 24 25 27 29 30 30
23 23 24 24 24 25 27 28 28 27 26 25 22 19 17 15 15 15 16 17 17 19 21 23 23 23 23 24 25 26 25 22 21 21 22 23 24 25 25 24 23 24 24 23 19 17 20 21 21 22 21 23 25 24 25 26 25 24 25 26 28 29 29
25 26 26 26 25 26 27 26 27 27 25 25 23 21 19 17 16 16 17 18 19 20 22 23 24 24 24 25 26 27 27 23 20 20 21 23 24 24 23 23 22 22 21 20 17 16 18 20 19 19 19 20 22 21 21 25 27 26 25 25 25 26 27
26 26 27 27 27 27 26 25 26 26 24 23 23 22 20 19 18 18 18 20 21 22 23 24 25 25 24 24 25 26 27 23 19 19 21 22 23 23 22 21 21 21 19 18 15 14 16 16 17 18 18 20 24 24 21 22 24 22 22 24 24 23 24
25 26 27 27 27 26 26 25 26 26 24 23 22 22 21 20 20 19 20 22 23 23 24 25 25 25 25 25 24 25 26 24 19 19 20 21 23 23 22 21 20 19 20 17 14 14 15 13 13 18 22 23 25 24 20 21 23 20 19 21 19 18 21
25 26 26 24 24 24 24 24 24 23 24 23 23 23 23 22 22 21 21 23 24 25 25 25 25 25 25 26 25 24 26 26 23 20 20 21 23 23 23 23 21 20 20 19 15 16 17 15 14 20 24 24 24 23 21 23 24 21 20 20 16 12 16
24 25 24 22 23 23 23 24 23 22 23 23 23 23 23 23 23 22 23 24 25 26 26 25 25 25 25 27 26 25 25 26 25 23 22 22 22 21 22 24 24 23 22 21 18 16 18 19 18 20 24 24 24 24 23 21 21 22 23 22 19 15 15
24 24 24 23 24 24 25 24 23 22 22 23 23 23 24 25 25 24 24 25 26 26 26 25 24 24 24 27 27 26 25 25 25 25 25 24 22 20 20 22 24 25 24 24 22 19 21 25 24 22 25 28 26 25 24 21 21 23 23 21 21 20 17
25 25 26 25 25 25 25 24 22 20 21 21 21 22 24 25 26 26 25 26 26 27 26 26 25 24 24 26 27 27 25 25 24 25 26 26 24 21 19 20 22 24 24 25 25 23 23 26 27 26 27 28 28 27 27 26 24 24 23 22 21 19 18
26 27 27 26 24 23 24 23 20 19 19 20 21 23 25 26 27 27 27 26 26 26 26 26 25 25 25 25 26 26 25 25 25 25 26 26 25 23 20 20 21 23 23 24 25 25 24 22 24 26 26 27 28 28 28 28 27 26 24 22 18 16 17
26 26 26 25 22 21 22 21 20 17 17 19 19 18 21 25 27 26 25 24 24 25 26 26 25 25 25 25 25 25 24 24 25 25 26 25 24 23 22 21 21 21 23 23 23 23 22 20 20 21 22 24 25 27 27 24 22 22 22 19 15 13 16
26 25 25 24 22 18 19 21 21 17 16 16 15 11 10 15 18 18 17 18 20 22 23 25 26 26 25 25 25 24 23 23 25 26 27 26 25 24 23 23 22 21 21 22 22 21 20 19 18 18 18 20 22 26 28 24 20 22 23 20 13 9 13
25 25 23 22 19 16 16 20 20 17 14 13 10 7 5 6 8 10 13 14 15 17 19 21 23 25 25 26 26 25 24 24 26 27 27 27 26 25 24 23 23 22 21 21 20 20 19 19 19 18 17 18 21 25 29 28 25 26 26 21 14 11 12
23 23 22 21 18 15 15 19 19 16 12 10 8 5 3 3 4 8 11 14 15 17 18 19 21 23 25 26 26 25 25 26 28 29 29 29 26 23 23 24 24 23 23 23 22 21 20 19 19 19 18 18 21 24 28 30 29 29 29 24 18 16 14
21 21 21 21 19 16 17 19 18 15 12 10 7 5 4 3 3 5 7 10 12 15 17 19 22 23 24 25 26 26 26 26 28 30 31 30 26 23 23 25 25 25 25 26 25 23 22 20 19 20 19 19 22 24 27 29 29 30 31 27 22 22 19
22 21 21 22 21 19 19 19 17 15 13 11 7 5 5 5 6 7 8 9 11 12 13 16 19 21 23 25 27 28 28 27 26 28 30 30 28 27 26 25 25 25 25 25 25 23 22 21 20 20 21 22 24 26 27 29 29 29 30 29 26 26 23
23 22 23 24 24 22 20 19 17 14 13 12 9 7 6 7 8 9 10 11 12 13 14 14 16 18 20 21 24 27 28 28 27 27 29 30 30 29 28 26 25 25 25 25 23 21 21 22 22 23 23 23 25 26 27 29 29 27 27 28 27 27 26
23 23 24 24 25 24 22 20 17 15 14 12 10 8 8 8 9 10 10 12 13 13 14 16 16 17 18 19 21 23 26 28 30 30 31 31 31 31 29 27 25 25 24 23 22 21 21 22 24 25 25 25 26 27 27 28 27 27 27 26 25 25 25
21 20 20 21 22 23 22 21 19 16 13 11 8 9 10 10 10 10 10 12 14 14 15 15 16 17 19 19 21 22 23 25 28 29 30 29 30 32 32 29 27 26 24 22 22 21 21 22 24 27 28 28 28 27 27 27 25 24 25 24 23 22 19
20 19 19 19 19 20 20 20 19 15 11 8 6 8 10 10 9 9 9 11 12 11 11 11 10 11 12 14 16 18 20 22 24 26 28 29 29 32 33 30 28 27 25 23 22 22 23 23 24 27 29 30 30 28 27 25 23 22 22 22 20 19 17
19 20 19 18 17 18 19 19 16 13 9 7 8 9 8 6 4 4 5 5 4 3 2 2 1 2 3 5 7 9 12 15 16 17 20 23 26 29 30 29 29 28 27 24 23 23 24 25 25 27 29 30 30 29 27 26 25 23 22 22 22 21 19
20 19 17 15 16 17 18 16 14 11 9 8 10 11 6 0 1 0 1 1 2 3 4 4 4 5 5 4 4 5 6 7 8 10 11 13 16 20 24 26 28 28 26 24 24 25 26 27 27 28 29 29 29 29 28 27 27 26 24 24 24 23 21
20 17 16 16 18 18 15 13 12 11 9 9 11 10 5 0 2 2 2 3 4 6 7 7 8 9 9 9 9 10 11 13 14 15 16 17 17 18 20 21 22 23 23 24 27 27 27 27 28 28 29 29 28 28 28 27 28 27 26 24 23 21 20
18 18 19 20 20 19 13 11 11 10 8 8 9 6 2 2 3 3 4 5 6 8 9 10 11 11 11 11 12 13 15 16 17 18 18 18 19 19 19 20 21 22 24 25 28 29 29 29 28 28 28 28 27 26 26 26 26 26 25 22 20 19 20
20 22 22 21 23 21 12 8 9 8 6 5 5 5 5 5 4 5 6 6 7 9 11 12 12 12 12 13 14 14 14 16 18 19 19 18 19 20 20 20 20 22 24 26 28 29 29 29 29 28 27 28 27 26 24 22 22 23 23 21 19 19 19
22 23 23 22 24 22 13 6 6 6 4 5 6 7 8 7 6 6 7 7 8 10 12 13 13 12 12 13 14 13 14 15 17 19 20 19 18 18 19 20 21 22 24 25 25 26 27 28 29 28 28 28 28 26 23 21 20 21 21 20 20 21 20
23 25 25 24 25 22 14 7 7 7 7 9 9 9 9 8 7 7 6 6 7 11 12 13 13 12 11 13 13 13 14 15 16 18 19 19 19 17 17 19 21 22 24 25 25 26 26 27 28 28 28 28 28 25 23 21 20 20 20 19 19 20 21
25 26 26 26 26 22 13 7 9 10 11 12 12 11 11 10 9 8 5 4 8 12 13 12 13 12 10 12 13 14 15 16 16 17 17 18 18 17 16 18 20 22 23 24 26 27 27 27 28 29 28 27 25 24 23 22 21 21 20 19 18 18 19
28 28 27 27 28 24 14 11 13 14 14 14 13 11 9 8 8 7 5 5 10 13 13 12 13 12 11 12 14 15 16 16 16 16 17 17 17 17 17 18 19 21 22 23 24 25 26 27 28 29 28 26 23 22 22 22 21 21 20 19 19 19 19
25 27 26 26 27 25 20 17 17 16 14 12 9 6 5 6 8 9 9 9 10 11 12 12 13 12 13 13 14 14 15 16 16 16 16 17 17 17 18 18 19 20 21 23 24 24 25 25 26 26 26 25 23 22 22 22 21 20 20 20 20 20 20
22 24 26 27 27 24 21 19 18 16 14 11 7 4 4 7 10 11 10 10 10 10 10 11 12 12 13 14 14 14 14 15 15 15 15 16 17 18 18 19 19 19 20 22 24 24 25 25 24 24 24 23 22 22 22 22 22 21 20 20 21 21 21
Wind_Direction
292 294 295 293 292 292 296 298 289 275 268 264 260 259 257 255 255 253 253 252 249 246 241 235 233 233 236 238 238 239 242 242 241 240 236 230 227 225 224 223 221 227 236 216 210 216 217 216 218 218 220 221 220 221 224 225 226 228 229 230 231 233 232
291 293 294 291 288 290 294 300 302 289 273 264 259 259 258 254 251 248 246 246 245 244 241 236 234 234 238 240 239 238 240 240 238 235 232 229 225 224 224 223 219 221 231 215 197 204 209 209 212 215 218 218 219 221 221 220 221 224 227 228 229 230 231
294 295 294 289 287 294 302 307 311 310 299 280 263 256 256 254 249 245 242 240 242 244 242 237 235 235 237 238 237 236 237 239 238 233 229 228 225 222 224 224 219 218 224 219 199 196 197 200 205 211 215 217 218 219 218 218 219 221 222 225 227 229 231
299 296 293 292 297 306 308 306 307 309 309 305 287 264 255 250 246 244 243 242 245 247 245 239 235 234 235 233 232 232 234 236 238 233 228 227 224 222 223 223 221 219 221 220 206 195 198 201 203 207 213 213 211 212 215 216 216 218 220 222 225 228 229
300 298 299 303 304 305 303 302 303 302 301 302 302 289 269 255 247 245 246 247 249 250 249 246 242 239 236 231 228 227 228 231 235 233 228 225 223 221 221 221 220 220 221 219 206 193 198 202 200 202 208 208 204 202 206 210 211 214 216 217 221 226 228
299 299 301 301 301 299 297 296 295 295 296 295 294 292 284 270 258 252 250 250 252 254 254 251 250 247 241 234 228 226 225 226 229 230 227 224 222 220 219 218 217 217 217 217 209 191 187 192 195 195 199 204 205 201 199 200 203 210 213 213 216 222 226
296 296 298 297 295 295 293 291 288 287 288 289 288 285 282 277 268 261 258 256 257 259 258 254 252 250 244 238 232 228 225 223 224 227 228 226 223 220 217 214 214 214 213 212 206 189 182 187 192 195 196 199 201 202 203 202 198 201 208 210 212 216 220
295 295 295 294 292 291 289 286 283 281 280 281 282 280 277 274 269 263 261 260 261 261 260 257 252 248 245 241 235 231 226 224 223 223 226 228 225 220 214 211 210 211 211 210 201 186 182 183 184 190 193 190 189 192 202 205 202 200 201 204 207 212 217
295 294 294 293 290 288 285 280 276 274 273 273 275 275 273 269 265 262 260 259 260 260 258 256 251 246 244 241 239 234 228 225 226 226 225 226 225 219 213 208 206 206 206 206 198 184 178 177 179 184 182 181 188 195 198 199 200 203 202 201 203 208 214
294 294 294 293 291 287 283 278 272 269 266 264 265 266 266 264 261 259 257 255 255 255 253 252 249 245 242 241 240 236 229 225 228 232 232 229 225 220 214 206 202 200 199 199 194 183 177 175 181 186 185 189 197 199 195 192 193 197 195 192 195 206 213
295 295 293 289 286 285 282 277 272 267 263 260 257 256 255 256 256 255 254 252 250 249 249 247 245 243 242 241 238 233 230 228 229 232 235 234 230 225 220 212 203 198 195 194 191 186 183 183 188 192 192 194 197 195 194 194 192 188 182 180 187 200 207
294 292 290 283 280 280 279 276 273 267 262 259 255 252 249 249 251 251 250 249 247 246 244 242 241 241 241 240 237 235 232 231 230 231 230 230 229 228 226 221 214 207 200 195 190 185 188 193 194 193 194 195 194 193 194 194 191 189 187 187 193 197 197
291 289 289 286 284 285 284 282 278 271 265 261 256 251 247 247 247 246 246 246 244 243 241 239 237 236 237 239 237 235 234 233 232 229 224 223 225 225 225 225 222 218 213 206 198 189 193 200 198 194 198 200 196 192 189 188 190 192 193 194 199 200 196
294 293 294 293 291 291 290 289 286 277 267 261 255 250 247 245 243 242 242 242 240 239 238 236 233 232 234 236 235 231 232 234 232 225 217 215 217 220 224 224 222 222 220 216 210 204 203 204 203 205 208 206 201 198 195 193 193 194 196 198 202 203 199
301 300 301 301 297 292 290 293 294 283 270 265 261 253 246 244 243 242 241 240 238 235 236 235 233 233 233 235 234 231 230 231 230 223 214 209 210 215 222 225 223 221 220 219 219 218 215 210 210 215 217 213 210 209 207 205 203 200 197 194 190 189 191
306 305 306 308 305 297 296 306 311 296 277 275 273 262 245 239 241 241 238 236 234 235 236 235 233 232 232 233 235 233 228 227 225 219 213 210 211 214 218 226 230 227 221 219 221 223 221 219 218 220 220 219 217 213 209 204 199 195 189 179 169 170 180
317 319 319 318 318 312 312 322 329 319 300 293 295 291 263 240 237 237 235 234 234 235 235 234 232 231 229 229 232 232 228 224 221 217 214 214 217 218 220 225 231 229 222 220 222 223 223 224 222 221 220 219 217 213 207 195 184 184 181 173 167 170 177
324 326 326 322 321 323 324 326 332 334 326 317 317 316 293 257 243 241 242 243 242 240 236 233 232 230 227 227 228 227 224 223 221 217 215 215 216 217 218 222 224 222 217 216 221 225 226 225 224 221 220 217 213 210 206 198 192 188 181 177 181 178 168
327 327 330 330 325 324 327 331 338 345 342 336 341 351 342 296 258 248 248 248 246 244 243 240 236 233 229 229 229 227 224 224 221 216 215 216 214 211 215 222 222 219 213 211 213 216 216 217 218 216 216 215 212 209 208 206 202 194 187 186 186 172 158
328 326 330 335 332 325 328 337 346 350 348 344 342 341 341 332 302 270 260 255 248 243 241 240 240 239 236 233 233 232 230 229 225 218 214 213 210 209 218 224 222 219 216 213 210 209 209 210 210 209 208 207 205 206 207 207 204 200 196 193 186 177 178
331 329 328 333 335 330 329 336 342 343 342 342 338 323 308 302 302 294 283 275 265 255 248 242 239 240 240 237 235 234 233 232 229 221 215 212 212 216 222 223 219 217 216 214 210 206 203 203 202 200 200 198 196 200 203 202 203 206 204 199 192 188 190
333 333 331 334 337 335 332 334 337 333 328 325 323 319 309 295 293 294 287 279 271 263 260 257 249 244 243 240 236 234 233 232 230 225 219 217 219 222 223 221 218 215 210 208 206 199 192 192 191 189 189 190 190 193 197 199 200 204 204 203 204 202 201
335 335 332 333 335 334 332 334 334 328 323 319 310 305 309 301 290 286 281 274 268 261 258 260 257 253 249 245 242 240 236 233 232 229 224 223 224 225 223 218 215 211 205 199 195 189 184 183 183 181 180 182 185 188 193 195 197 199 200 202 205 207 211
330 330 326 325 325 325 327 331 331 324 320 320 312 305 309 306 292 285 279 271 268 265 262 260 259 258 255 251 248 245 241 238 235 232 229 227 224 223 221 215 208 204 198 191 186 184 181 180 180 179 177 179 182 185 189 190 191 194 196 198 200 201 204
323 322 320 317 315 315 319 325 329 327 326 333 337 323 313 305 291 279 270 265 265 266 265 263 260 260 258 254 249 245 243 242 240 238 237 234 229 223 217 209 199 193 188 184 183 182 178 177 177 178 178 179 180 180 182 182 180 181 184 187 188 186 183
319 318 315 311 308 312 318 323 330 337 345 1 7 350 329 310 287 265 257 260 262 258 253 248 234 241 251 251 245 237 232 231 231 232 235 236 231 221 208 195 188 185 182 179 178 175 171 170 172 174 174 174 174 173 174 175 172 168 167 171 172 166 162
316 314 312 312 314 318 320 324 333 347 360 9 5 355 342 322 128 95 233 195 139 128 125 120 120 123 128 134 137 140 149 157 161 166 175 187 195 192 185 181 181 180 175 170 165 162 161 162 164 166 165 164 165 166 167 171 171 165 159 162 165 158 152
312 317 323 325 324 324 323 327 339 352 358 353 348 342 327 184 83 62 102 126 130 132 131 129 126 120 117 116 112 109 112 116 120 127 135 141 148 154 158 163 165 162 157 157 156 154 154 156 156 157 157 158 160 161 162 166 169 166 160 160 161 155 152
329 336 339 337 332 329 324 324 337 350 352 343 343 348 358 59 65 84 105 116 131 136 128 118 113 107 104 106 105 103 105 109 110 112 116 123 130 135 139 146 149 149 150 154 156 155 154 153 152 151 153 155 155 156 158 163 166 164 160 161 164 161 161
348 348 349 347 342 340 335 323 333 349 355 356 15 49 65 72 89 106 113 128 141 134 118 105 97 95 100 106 107 104 104 107 109 108 107 111 121 129 134 139 145 148 152 155 157 156 154 153 151 150 152 152 151 150 154 159 165 166 165 166 165 160 161
354 355 358 355 350 353 360 358 353 9 39 63 76 81 80 87 104 108 116 141 142 119 105 101 96 92 98 106 107 106 110 112 113 113 113 114 118 127 137 143 147 152 154 154 153 152 153 154 153 152 152 152 150 150 153 158 164 168 169 170 168 162 161
360 2 3 360 357 2 12 24 34 53 78 87 90 91 86 86 96 100 112 146 137 110 101 103 103 100 103 109 109 111 116 119 118 119 122 125 125 129 140 149 153 157 158 157 155 154 153 154 154 153 153 153 152 152 153 156 161 164 166 166 165 163 163
6 6 5 6 7 10 19 47 64 74 89 91 87 88 84 78 81 91 110 152 135 116 108 109 111 112 113 116 117 119 121 122 122 124 128 131 132 136 143 150 155 158 159 158 158 157 156 155 155 154 153 153 155 157 157 157 160 162 162 160 159 159 162
7 9 8 11 17 22 40 74 81 81 89 91 88 86 86 84 84 86 97 127 126 120 118 118 117 119 120 121 124 126 125 126 128 133 135 136 137 141 145 150 154 156 156 156 156 156 157 157 157 157 156 155 156 158 159 159 160 161 161 161 159 159 162
2 5 7 13 21 30 46 67 76 78 79 80 80 77 76 87 90 85 86 100 111 116 121 124 125 126 127 127 128 129 130 132 134 138 141 140 141 143 146 149 153 154 155 157 158 158 158 158 158 159 160 160 160 160 160 160 162 164 166 166 165 163 163
357 1 7 15 22 29 40 50 58 64 65 63 64 66 70 86 92 91 90 95 104 114 121 125 128 132 132 133 134 134 136 139 140 143 145 145 146 148 149 152 155 155 156 157 158 159 161 161 161 162 163 163 164 165 166 166 166 168 171 172 171 169 168